Regional Weather Roundup
Issued by NWS

Home | Current Version | Previous Version | Text Only | Print | Product List | Glossary Off
Versions: 1 2 3 4 5 6 7 8 9 10 11 12 13 14 15 16 17 18 19 20 21 22 23 24 25 26 27 28 29 30 31 32 33 34 35 36 37 38 39 40 41 42 43 44 45 46 47 48 49 50

845
ASUS45 KSLC 260610
RWRUT

UTAH REGIONAL WEATHER ROUNDUP
NATIONAL WEATHER SERVICE SALT LAKE CITY UT
1200 AM MDT MON SEP 26 2016

UTZ001>011-023>025-260700-

NORTHERN UTAH

CITY           SKY/WX    TMP DP  RH WIND       PRES   REMARKS
BRIGHAM CITY     N/A     52  47  81 N3        30.43S
HILL AFB       CLEAR     53  38  57 E12       30.44S
LOGAN          CLEAR     48  44  86 N3        30.44S
OGDEN          CLEAR     53  41  63 S5        30.43S
PROVO AIRPORT  CLEAR     50  44  80 SE7       30.45S
SALT LAKE CITY CLEAR     54  46  74 SE7       30.42S
VERNAL         CLEAR     48  41  76 W6        30.46S
WENDOVER       CLEAR     54  41  62 NW8       30.44S
HEBER CITY     CLEAR     41  36  81 CALM      30.47R
WEST JORDAN    CLEAR     50  41  71 SW5       30.45R

$$

UTZ012>022-026-027-260700-

SOUTHERN/CENTRAL UTAH

CITY           SKY/WX    TMP DP  RH WIND       PRES   REMARKS
BLANDING       CLEAR     52  28  40 NW9       30.47R
BRYCE CANYON   CLEAR     41  29  62 NW7       30.52R
CEDAR CITY     CLEAR     48  37  65 NE7       30.42S
DELTA          CLEAR     52  37  58 N7        30.43S
MILFORD        CLEAR     56  43  61 N9        30.43R
MOAB/CYNLANDS  CLEAR     52  41  66 W3        30.37R
PRICE          CLEAR     50  39  66 N6        30.46S
ST GEORGE      CLEAR     72  37  28 NE14G20   30.27S

$$

REGIONAL REPORTS     COLORADO/ARIZONA

CITY           SKY/WX    TMP DP  RH WIND       PRES   REMARKS
CRAIG, CO      CLOUDY    39  35  86 CALM      30.51S
GRAND JUNCTION CLEAR     52  38  58 CALM      30.40S
RIFLE          CLOUDY    47  40  76 E5        30.45R
MONTROSE       CLEAR     47  37  68 SE9       30.47R
CORTEZ         CLEAR     44  36  73 E6        30.41R
PAGE, AZ       CLEAR     61  35  37 CALM      30.33R
GRAND CANYON   CLEAR     58  30  34 NE14      30.42R
KINGMAN        CLEAR     70  31  23 NE13      30.21F
FLAGSTAFF      PTCLDY    56  29  35 NE13      30.41R

$$

REGIONAL REPORTS    NEVADA/IDAHO/WYOMING

CITY           SKY/WX    TMP DP  RH WIND       PRES   REMARKS
LAS VEGAS, NV  CLEAR     78  26  14 E12       30.16R
ELY            CLEAR     50  28  42 E9        30.48S
ELKO           CLEAR     56  38  50 E3        30.43S
POCATELLO, ID  CLEAR     47  39  74 CALM      30.45S
BURLEY         CLEAR     47  42  83 SW3       30.42S
EVANSTON, WY   CLOUDY    49  31  49 S5        30.54S
ROCK SPRINGS   CLEAR     48  35  60 SW10      30.49R

$$




USA.gov is the U.S. government's official web portal to all federal, state and local government web resources and services.